Location: Albany
(35.0000°S, 118.0000°E)
Time: 08:54:41
(UTC-04:00)

Tiangong - Pass Details

Date: 29 September 2021
Orbit: 382 x 385 km, 41.5° (Epoch: 16 October)

Event Time Altitude Azimuth Distance (km) Brightness Sun altitude
Rises 07:10:08 0° 244° (WSW) 2,289 6.7 -13.1°
Reaches altitude 10° 07:12:21 10° 233° (SW) 1,432 5.1 -13.5°
Maximum altitude 07:15:18 32° 167° (SSE) 701 2.3 -14.1°
Enters shadow 07:16:43 22° 121° (ESE) 919 2.6 -14.4°
